Other Public Products
Issued by NWS Charleston, SC

Current Version | Previous Version | Graphics & Text | Print | Product List | Glossary On
Versions: 1 2 3 4 5 6 7 8 9 10 11 12 13 14 15 16 17 18 19 20 21 22 23 24 25 26 27 28 29 30 31 32 33 34 35 36 37 38 39 40 41 42 43 44 45 46 47 48 49 50
236
FPUS82 KCHS 221627
OPUCHS

TEST...KCHS/KSAV Gateway Observations...TEST
National Weather Service Charleston SC
1200 PM EDT SUN APR 22 2018

NOTE: "fair" indicates few or no clouds below 12,000 feet with no
significant weather and/or obstructions to visibility.

SCZ050-WAZ558-NCZ071-TXZ119-213-PAZ071-DCZ001-FLZ074-172-MI076-
NYZ176-178-MAZ016-IL014-TNZ027-NJZ106-GAZ044-MD014-221700-

...Gateway Observations for Charleston International...

CITY           SKY/WX    TMP DP  RH WIND       PRES   REMARKS
Chas Airport   PTSUNNY   74  52  46 E14       30.30S
Seattle        CLOUDY    46  38  73 N13       30.41S
Charlotte      PTSUNNY   66  43  43 SE8       30.33F
Dallas DFW     MOSUNNY   58  43  57 NW20      30.09R
Dallas Love    MOSUNNY   59  45  59 NW18      30.11R
Philladelphia  PTSUNNY   59  21  23 SE6       30.43F
Wash National  PTSUNNY   63  42  46 E13G18    30.39F
Baltimore      PTSUNNY   59  30  33 E13       30.40F
Miami          PTSUNNY   82  74  76 E16       30.11F
Detroit        FAIR      57  24  28 E9        30.43S
Newark         FAIR      62  34  35 N10       30.39F
Laguardia      FAIR      59  18  20 VRB6      30.39F
J F K          FAIR      58  21  24 S8        30.41F
Boston Logan   FAIR      56  17  21 W16G23    30.34F
Ft. Lauderdale LGT RAIN  78  75  90 SE10      30.09F
Chicago O`Hare PTSUNNY   56  23  27 E14       30.35F
Chicago Midway PTSUNNY   56  25  30 E13       30.35F
Houston Bush   CLOUDY    58  55  90 NW12      30.07R
Houston Hobby  CLOUDY    59  56  89 NW14      30.05R
Nashville      LGT RAIN  59  56  89 E10       30.13F FOG
Atlanta        LGT RAIN  59  57  93 E10       30.21F

$$

GAZ044-118-TXZ119-213-NCZ071-DCZ001-MDZ014-506-PAZ021-071-NJZ106-
NYZ176-178-MAZ106-OHZ011-021-055-MIZ076-KYZ091-ILZ014-INZ047-
MNZ060-ONZ431-221700-

...Gateway Observations for Savannah International...

CITY           SKY/WX    TMP DP  RH WIND       PRES   REMARKS
Savannah Arpt  CLOUDY    73  54  51 SE16      30.27S
Atlanta        LGT RAIN  59  57  93 E10       30.21F
Charlotte      PTSUNNY   66  43  43 SE8       30.33F
Dallas DFW     MOSUNNY   58  43  57 NW20      30.09R
Houston Bush   CLOUDY    58  55  90 NW12      30.07R
Wash National  PTSUNNY   63  42  46 E13G18    30.39F
Wash Dulles    PTSUNNY   62  41  46 E8        30.37F
Baltimore      PTSUNNY   59  30  33 E13       30.40F
Philadelphia   PTSUNNY   59  21  23 SE6       30.43F
Newark         FAIR      62  34  35 N10       30.39F
Laguardia      FAIR      59  18  20 VRB6      30.39F
J F K          FAIR      58  21  24 S8        30.41F
Boston         FAIR      56  17  21 W16G23    30.34F
Pittsburg      PTSUNNY   59  28  30 E9        30.33F
Akron          PTSUNNY   60  30  32 NE9       30.35F
Cleveland      PTSUNNY   54  31  41 N12       30.41S
Cincinnati     CLOUDY    58  30  34 E13       30.27R
Columbus       FAIR      58  31  36 E9        30.30F
Detroit        FAIR      57  24  28 E9        30.43S
Chicago O`Hare PTSUNNY   56  23  27 E14       30.35F
Minneapolis    FAIR      55  32  41 SE3       30.37F
Indianapolis   CLOUDY    58  31  35 NE12      30.26F
Toronto Canada SUNNY     57  19  23 CALM      30.44F

$$




USA.gov is the U.S. government's official web portal to all federal, state and local government web resources and services.